[[{"header":{"parameterUnit":"m.s-1","parameterCategory":2,"la1":30.2991,"la2":30.254,"lo1":-89.0895,"lo2":-89.0444,"dy":0.0017,"dx":0.0017,"nx":28,"ny":28,"refTime":"2023-08-28T09:00:00:Z","depth":"0","parameterNumber":2,"parameterNumberName":"U-component_of_CURRENTS"},"data":[0,0,0,0,0,0,0,0,0,0,0,0,0,0,0,0,0,0,0,0,0,0,0,0,0,0,0,0,0,0,0,0,0,0,0,0,0,0,0,0,0,0,0,0,0,0,0,0,0,0,0,0,0,0,0,0,0,0,0.3268,0.3269,0,0.3328,0.3329,0.3329,0.3332,0.3331,0.333,0.333,0.3317,0.3318,0.3318,0,0,0,0,0,0,0,0,0,0,0,0,0,0.3234,0.3234,0.3268,0.3269,0.327,0.3328,0.3329,0.333,0.3332,0.3331,0.333,0.3329,0.3317,0.3318,0.3318,0,0,0,0,0,0,0,0,0,0,0,0,0,0.3267,0.3234,0.3268,0.3278,0.3279,0.3328,0.3329,0.333,0.3332,0.3331,0.333,0.3329,0.3317,0.3318,0.3318,0.3343,0,0,0.332,0.332,0,0,0,0,0,0,0,0,0.3265,0.3268,0.3276,0.3277,0.3279,0.3321,0.3312,0.3331,0.3332,0.3312,0.333,0.3328,0.3313,0.3314,0.3328,0.3343,0.3342,0.332,0.332,0.332,0.332,0,0,0,0,0,0,0,0.3262,0.3266,0.3292,0.3277,0.3279,0.3306,0.3309,0.3316,0.3317,0.3314,0.3314,0.3321,0.3313,0.3328,0.3328,0.3342,0.332,0.332,0.3321,0.3321,0.3379,0.338,0,0,0,0,0,0,0.3252,0.3263,0.329,0.3294,0.3269,0.3307,0.331,0.3309,0.3318,0.3319,0.3322,0.3321,0.3328,0.3327,0.3327,0.3346,0.332,0.3321,0.3321,0.3378,0.3379,0.3381,0,0,0,0,0,0,0.3251,0.3254,0.3288,0.3281,0.3287,0.3308,0.3307,0.3311,0.3327,0.3325,0.3324,0.3334,0.3327,0.3327,0.3337,0.3345,0.3321,0.3321,0.3376,0.3378,0.338,0.339,0,0,0,0,0,0,0.325,0.3253,0.3252,0.3279,0.3287,0.331,0.3308,0.3313,0.3332,0.3332,0.3335,0.3333,0.3326,0.3336,0.3337,0.3346,0.3322,0.3375,0.3377,0.3379,0.3388,0.3392,0.3395,0,0,0,0,0,0.3248,0.3243,0.3251,0.3255,0.3283,0.331,0.3316,0.3329,0.3334,0.334,0.3347,0.3333,0.3352,0.3337,0.3339,0.3347,0.3374,0.3376,0.3379,0.3386,0.3391,0.3395,0,0,0,0,0,0,0.3225,0.3244,0.3253,0.3254,0.3279,0.331,0.3317,0.3335,0.335,0.3345,0.3347,0.3346,0.336,0.3359,0.3344,0.3374,0.3362,0.3365,0.3367,0.3371,0.3375,0.3431,0.3322,0,0,0,0,0,0.3222,0.3221,0.3252,0.3252,0.3264,0.3296,0.3311,0.3322,0.3339,0.3346,0.335,0.3359,0.3376,0.3375,0.3385,0.34,0.3471,0.3409,0.3413,0.3416,0.3465,0.3542,0.3558,0.339,0.339,0.339,0,0,0.3211,0.3223,0.3222,0.3247,0.3267,0.3294,0.3301,0.332,0.3348,0.3341,0.3367,0.3371,0.3385,0.3401,0.3407,0.3397,0.351,0.3419,0.3421,0.347,0.3547,0.3564,0.3579,0.3392,0.3391,0.3391,0,0,0.3197,0.3203,0.3205,0.3229,0.326,0.3286,0.3294,0.3328,0.3345,0.3372,0.338,0.3406,0.3409,0.3438,0.345,0.3487,0.3528,0.3469,0.3527,0.36,0.3615,0.3629,0.3781,0.3808,0.3466,0.3466,0.3466,0,0.3189,0.3197,0.3211,0.323,0.3256,0.3285,0.3312,0.3339,0.3372,0.3403,0.3375,0.3443,0.3441,0.3504,0.3516,0.3498,0.3569,0.35,0.3606,0.3621,0.3635,0.3787,0.3817,0.3467,0.3467,0.3467,0.3467,0,0.3184,0.32,0.3204,0.3241,0.3269,0.3292,0.3338,0.3368,0.3389,0.3425,0.3482,0.3493,0.3541,0.3533,0.3537,0.3634,0.3667,0.3602,0.3595,0.3653,0.3809,0.3841,0.3468,0.3468,0.3467,0.3467,0,0,0.3156,0.3194,0.3199,0.3231,0.3281,0.3311,0.3359,0.3428,0.3494,0.3504,0.3597,0.3614,0.3633,0.3654,0.3655,0.3723,0.3887,0.3711,0.3714,0.3866,0.4119,0.4035,0.4061,0.3823,0.3827,0.3831,0.4203,0,0.3158,0.3193,0.3215,0.327,0.3302,0.3353,0.341,0.3475,0.353,0.3624,0.3658,0.3731,0.3671,0.3709,0.3762,0.3865,0.3963,0.3798,0.404,0.405,0.3968,0.4091,0.3838,0.4135,0.4233,0.4239,0.4242,0,0.3158,0.3187,0.323,0.3315,0.3336,0.3376,0.3498,0.3554,0.3681,0.3728,0.3797,0.3836,0.3962,0.3885,0.4099,0.3991,0.4077,0.4145,0.4158,0.4104,0.4021,0.4086,0.4189,0.4032,0.4291,0.4287,0.4284,0,0.315,0.3208,0.3246,0.327,0.3362,0.3407,0.3468,0.3586,0.3678,0.3817,0.391,0.4009,0.4115,0.42,0.4312,0.4227,0.4568,0.4455,0.448,0.4478,0.4329,0.4304,0.4309,0.463,0.4629,0.4628,0.4627,0,0.3159,0.3197,0.3247,0.3275,0.3367,0.3417,0.3546,0.3621,0.377,0.3915,0.3965,0.411,0.4196,0.4367,0.4422,0.4575,0.4652,0.4564,0.457,0.4327,0.4299,0.4205,0.4143,0.4642,0.4639,0.4636,0.4634,0,0.3169,0.3185,0.3251,0.3333,0.3368,0.3441,0.3602,0.3712,0.3825,0.4026,0.4083,0.4267,0.4484,0.4586,0.4801,0.4743,0.4729,0.4903,0.4653,0.4619,0.4404,0.4353,0.4318,0.4202,0.5003,0.5003,0.5003,0,0.3179,0.3206,0.3297,0.3357,0.3401,0.3514,0.3617,0.3738,0.3865,0.4124,0.4239,0.4489,0.4652,0.4933,0.4919,0.5041,0.4828,0.4824,0.4578,0.442,0.437,0.4178,0.4068,0.4434,0.443,0.4426,0.4423,0,0.3233,0.3259,0.3323,0.3423,0.352,0.3635,0.3774,0.3864,0.4036,0.4185,0.4417,0.456,0.4816,0.4808,0.4909,0.49,0.4523,0.4749,0.463,0.3988,0.374,0.3618,0.4233,0.439,0.4393,0.4396,0.4397,0.4399,0.3294,0.335,0.3422,0.3521,0.3622,0.3721,0.3787,0.3924,0.4075,0.4231,0.4439,0.4562,0.4583,0.4686,0.4659,0.4362,0.4411,0.4133,0.4126,0.3981,0.37,0.4282,0.4376,0.4379,0.4382,0.4384,0.4386,0,0.3384,0.3439,0.3526,0.3622,0.3707,0.3748,0.388,0.3899,0.4006,0.4161,0.4302,0.427,0.4198,0.4146,0.3919,0.3736,0.3523,0.3591,0.3244,0.3199,0.3767,0.3562,0.3424,0.3424,0.3424,0.3424,0.3424,0.3424,0.3448,0.3538,0.3562,0.3676,0.3729,0.3773,0.381,0.3806,0.3867,0.383,0.3797,0.3839,0.3763,0.3572,0.3278,0.3181,0.2932,0.2783,0.2856,0.3211,0.3258,0.3302,0.3091,0.2857,0.2856,0.2073,0.2067,0.2062]},{"header":{"parameterUnit":"m.s-1","parameterCategory":2,"la1":30.2991,"la2":30.254,"lo1":-89.0895,"lo2":-89.0444,"dy":0.0017,"dx":0.0017,"nx":28,"ny":28,"refTime":"2023-08-28T09:00:00:Z","depth":"0","parameterNumber":3,"parameterNumberName":"V-component_of_CURRENTS"},"data":[0,0,0,0,0,0,0,0,0,0,0,0,0,0,0,0,0,0,0,0,0,0,0,0,0,0,0,0,0,0,0,0,0,0,0,0,0,0,0,0,0,0,0,0,0,0,0,0,0,0,0,0,0,0,0,0,0,0,0.007,0.007,0,0.0029,0.0028,0.0028,-0.001,-0.001,-0.0011,-0.0011,-0.0057,-0.0058,-0.0058,0,0,0,0,0,0,0,0,0,0,0,0,0,0.0074,0.0075,0.0071,0.007,0.007,0.0029,0.0028,0.0028,-0.001,-0.001,-0.0011,-0.0011,-0.0056,-0.0057,-0.0059,0,0,0,0,0,0,0,0,0,0,0,0,0,0.0056,0.0075,0.0071,0.0047,0.0044,0.0029,0.0028,0.0027,-0.001,-0.001,-0.0011,-0.0011,-0.0056,-0.0057,-0.0059,-0.0056,0,0,-0.0063,-0.0063,0,0,0,0,0,0,0,0,0.0057,0.0056,0.0051,0.0048,0.0046,0.0015,0.0013,-0.0,-0.001,0.001,-0.0011,-0.0012,-0.0032,-0.0035,-0.0043,-0.0058,-0.006,-0.0063,-0.0064,-0.0064,-0.0065,0,0,0,0,0,0,0,0.0059,0.0057,0.0053,0.005,0.0047,0.0023,0.002,0.001,-0.0008,0.0008,0.0005,0.0002,-0.0034,-0.0042,-0.0045,-0.006,-0.0063,-0.0064,-0.0065,-0.0065,-0.0082,-0.0082,0,0,0,0,0,0,0.0069,0.0059,0.0054,0.0052,0.0051,0.0024,0.0021,0.0025,-0.0008,-0.0013,0.0003,0.0001,-0.0039,-0.0043,-0.0046,-0.0037,-0.0064,-0.0065,-0.0066,-0.0083,-0.0082,-0.0082,0,0,0,0,0,0,0.0069,0.0069,0.0056,0.0054,0.0051,0.0025,0.0029,0.0024,0.0019,-0.0012,-0.0018,0.0004,-0.004,-0.0045,-0.0052,-0.0039,-0.0066,-0.0067,-0.0083,-0.0083,-0.0082,-0.0023,0,0,0,0,0,0,0.0069,0.0069,0.0076,0.0056,0.0052,0.0058,0.003,0.0024,0.0018,0.0015,-0.0013,-0.0018,-0.0041,-0.005,-0.0054,-0.0042,-0.0068,-0.0084,-0.0083,-0.0082,-0.0026,-0.0021,-0.0017,0,0,0,0,0,0.007,0.0086,0.0076,0.0076,0.0062,0.0059,0.0055,0.0033,0.0019,0.0024,0.0,-0.0017,-0.0049,-0.0051,-0.0055,-0.0043,-0.0084,-0.0083,-0.0082,-0.0028,-0.0022,-0.0017,0,0,0,0,0,0,0.0091,0.0083,0.0072,0.0085,0.0076,0.0053,0.0055,0.004,0.0026,0.002,-0.0011,-0.0017,-0.002,-0.004,-0.0041,-0.0048,-0.007,-0.007,-0.0027,-0.0022,-0.0017,0.0004,-0.0069,0,0,0,0,0,0.0099,0.0109,0.0095,0.0105,0.0102,0.0079,0.0075,0.0061,0.0045,0.0038,0.0018,-0.0005,-0.0021,-0.0027,-0.0044,-0.0043,-0.0036,-0.004,-0.0035,-0.0031,-0.0018,-0.001,-0.0002,-0.0079,-0.0079,-0.0079,0,0,0.0108,0.0107,0.0111,0.011,0.0099,0.0106,0.0075,0.0075,0.0081,0.0036,0.0038,0.0011,-0.0017,-0.002,-0.0023,-0.0034,0.0,-0.003,-0.0027,-0.0015,-0.0008,-0.0,0.0007,-0.0079,-0.0079,-0.0079,0,0,0.0137,0.0132,0.015,0.0148,0.014,0.0128,0.0132,0.0114,0.0107,0.0104,0.0071,0.0054,0.0033,0.0014,0.0002,0.0022,0.0023,0.0016,0.0058,0.0066,0.0073,0.0079,0.0129,0.0139,0.0019,0.0019,0.0019,0,0.0147,0.017,0.0154,0.0171,0.0176,0.0143,0.0164,0.0153,0.0135,0.0138,0.0113,0.0084,0.005,0.0054,0.0052,0.0034,0.0055,0.0042,0.0074,0.008,0.0085,0.0134,0.0144,0.0022,0.0022,0.0021,0.0021,0,0.0187,0.0205,0.0217,0.0228,0.0231,0.0244,0.0229,0.023,0.0212,0.02,0.0199,0.0152,0.0136,0.0119,0.0088,0.0109,0.012,0.008,0.0065,0.0097,0.0146,0.0156,0.0026,0.0025,0.0024,0.0024,0,0,0.0213,0.0241,0.0246,0.0269,0.0265,0.0278,0.0287,0.0296,0.0319,0.0284,0.0315,0.0259,0.0231,0.0215,0.0176,0.0175,0.0222,0.0148,0.0147,0.0208,0.0284,0.0269,0.0278,0.0191,0.0193,0.0194,0.0315,0,0.025,0.0305,0.0302,0.0352,0.0378,0.036,0.038,0.0381,0.0373,0.0394,0.0346,0.0355,0.027,0.0272,0.0251,0.0233,0.0246,0.0196,0.0235,0.0237,0.0227,0.0287,0.0282,0.0387,0.0325,0.0326,0.0327,0,0.0291,0.0326,0.0386,0.0432,0.0441,0.0465,0.0502,0.0514,0.0521,0.0518,0.0503,0.0473,0.0463,0.0386,0.0373,0.035,0.0323,0.0306,0.0309,0.028,0.0239,0.0337,0.0406,0.024,0.0342,0.0341,0.034,0,0.0333,0.0386,0.0443,0.0457,0.0497,0.0526,0.0544,0.0557,0.0587,0.061,0.0646,0.0605,0.0627,0.0563,0.0504,0.0448,0.0519,0.043,0.0403,0.0403,0.0398,0.0395,0.0316,0.0435,0.0434,0.0434,0.0434,0,0.0379,0.0426,0.0474,0.0509,0.0584,0.0586,0.0658,0.067,0.0704,0.0773,0.0717,0.0784,0.0673,0.0686,0.0587,0.0552,0.0582,0.044,0.0433,0.0421,0.0418,0.0269,0.016,0.0439,0.0438,0.0437,0.0436,0,0.042,0.0448,0.0522,0.0584,0.061,0.0666,0.0734,0.0782,0.0813,0.0908,0.0929,0.0952,0.0988,0.0896,0.0849,0.0694,0.0552,0.0618,0.0634,0.0624,0.0371,0.0267,0.022,0.0143,0.0585,0.0585,0.0586,0,0.0449,0.0493,0.0585,0.0633,0.0668,0.0744,0.0795,0.0833,0.0892,0.1024,0.1086,0.1168,0.1259,0.1194,0.0984,0.0857,0.0659,0.0691,0.0541,0.0383,0.0262,0.0193,0.0125,0.0584,0.0584,0.0584,0.0584,0,0.0506,0.0539,0.0599,0.0692,0.0763,0.0847,0.0929,0.0997,0.1071,0.1198,0.1381,0.1485,0.1452,0.1362,0.1156,0.0989,0.0546,0.0687,0.0515,0.0253,0.0185,0.01,0.0504,0.0586,0.0586,0.0586,0.0586,0.0586,0.0548,0.0594,0.0661,0.0747,0.0832,0.0935,0.1026,0.1147,0.1305,0.1547,0.1618,0.1882,0.1657,0.1404,0.114,0.0618,0.0611,0.0412,0.031,0.0265,0.0139,0.0562,0.062,0.062,0.062,0.062,0.062,0,0.0581,0.0621,0.0704,0.081,0.0904,0.0943,0.1101,0.1231,0.1465,0.1782,0.2009,0.2133,0.1783,0.1382,0.0687,0.0306,0.0144,0.0084,-0.0035,-0.0082,0.0301,0.0242,0.023,0.023,0.0231,0.0231,0.0231,0.0231,0.0598,0.0657,0.0688,0.0832,0.092,0.1076,0.118,0.1421,0.1686,0.2135,0.2425,0.2608,0.2275,0.1001,0.0119,-0.0106,-0.0361,-0.0387,-0.0514,-0.0297,-0.0275,-0.0255,-0.0336,-0.0469,-0.047,-0.0854,-0.0858,-0.0861]}],[{"header":{"parameterUnit":"m.s-1","parameterCategory":2,"la1":30.2991,"la2":30.254,"lo1":-89.0895,"lo2":-89.0444,"dy":0.0017,"dx":0.0017,"nx":28,"ny":28,"refTime":"2023-08-28T09:00:00:Z","depth":"2","parameterNumber":2,"parameterNumberName":"U-component_of_CURRENTS"},"data":[0,0,0,0,0,0,0,0,0,0,0,0,0,0,0,0,0,0,0,0,0,0,0,0,0,0,0,0,0,0,0,0,0,0,0,0,0,0,0,0,0,0,0,0,0,0,0,0,0,0,0,0,0,0,0,0,0,0,0.2528,0.2529,0,0.2567,0.2567,0.2567,0.2571,0.2571,0.2571,0.257,0.2583,0.2584,0.2584,0,0,0,0,0,0,0,0,0,0,0,0,0,0.2503,0.2503,0.2528,0.2529,0.2529,0.2567,0.2567,0.2567,0.2571,0.2571,0.2571,0.257,0.2583,0.2583,0.2584,0,0,0,0,0,0,0,0,0,0,0,0,0,0.2524,0.2503,0.2528,0.2536,0.2538,0.2566,0.2567,0.2568,0.2572,0.2571,0.2571,0.257,0.2582,0.2583,0.2584,0.2599,0,0,0.2587,0.2588,0,0,0,0,0,0,0,0,0.2523,0.2525,0.2535,0.2536,0.2537,0.2565,0.2563,0.2577,0.2572,0.2558,0.257,0.257,0.2575,0.2577,0.2584,0.26,0.26,0.2587,0.2588,0.2588,0.2588,0,0,0,0,0,0,0,0.2521,0.2524,0.2542,0.2535,0.2537,0.2554,0.2556,0.2566,0.2567,0.2559,0.2559,0.2565,0.2576,0.2583,0.2584,0.26,0.2587,0.2588,0.2589,0.2589,0.2643,0.2644,0,0,0,0,0,0,0.2517,0.2522,0.2541,0.2544,0.253,0.2555,0.2557,0.2555,0.2568,0.257,0.2566,0.2566,0.2582,0.2583,0.2585,0.2625,0.2588,0.2589,0.259,0.2642,0.2643,0.2644,0,0,0,0,0,0,0.2516,0.2518,0.254,0.2535,0.2539,0.2555,0.2554,0.2557,0.2571,0.2574,0.2575,0.2579,0.2582,0.2583,0.2589,0.2624,0.2589,0.259,0.2641,0.2643,0.2644,0.2691,0,0,0,0,0,0,0.2515,0.2517,0.2522,0.2534,0.2539,0.2553,0.2555,0.2558,0.2576,0.2576,0.2585,0.2585,0.2581,0.2588,0.259,0.2625,0.2591,0.264,0.2642,0.2643,0.2688,0.2694,0.2698,0,0,0,0,0,0.2514,0.2518,0.2522,0.2525,0.2542,0.2553,0.2557,0.2567,0.2577,0.258,0.2584,0.2585,0.2601,0.2589,0.2591,0.2628,0.2639,0.2641,0.2643,0.2686,0.2693,0.2698,0,0,0,0,0,0,0.2507,0.2519,0.2524,0.253,0.254,0.2554,0.2565,0.2575,0.2584,0.259,0.2589,0.2589,0.2615,0.2608,0.2595,0.2647,0.2624,0.2627,0.2656,0.2662,0.2667,0.2692,0.2592,0,0,0,0,0,0.2509,0.2517,0.2527,0.2534,0.254,0.2557,0.2568,0.2576,0.2584,0.2589,0.2596,0.2608,0.2626,0.2631,0.2642,0.2662,0.2695,0.2689,0.2694,0.2699,0.272,0.2794,0.2809,0.2651,0.2651,0.2651,0,0,0.2509,0.2518,0.2522,0.2534,0.2546,0.2563,0.2562,0.258,0.2601,0.2589,0.2618,0.2627,0.2635,0.2662,0.2673,0.2659,0.276,0.2701,0.2705,0.2725,0.2798,0.2814,0.2828,0.2652,0.2652,0.2652,0,0,0.2513,0.2521,0.2529,0.254,0.2561,0.2574,0.2582,0.2602,0.2615,0.2636,0.2645,0.2672,0.2685,0.2707,0.2718,0.2757,0.2788,0.2762,0.2807,0.2878,0.2893,0.2906,0.2968,0.2986,0.2761,0.2761,0.2762,0,0.2516,0.2522,0.2533,0.2547,0.2561,0.2581,0.2597,0.2619,0.2639,0.2665,0.2647,0.2712,0.2713,0.2771,0.2784,0.2773,0.2816,0.2782,0.2888,0.2901,0.2914,0.2975,0.2994,0.2764,0.2764,0.2763,0.2763,0,0.2522,0.2534,0.2541,0.2566,0.2586,0.26,0.263,0.2659,0.2681,0.271,0.2767,0.2772,0.2816,0.2821,0.2814,0.2907,0.291,0.289,0.2876,0.2933,0.2993,0.3012,0.2768,0.2767,0.2766,0.2765,0,0,0.2507,0.2538,0.2542,0.2558,0.2596,0.2612,0.266,0.271,0.276,0.2786,0.2854,0.2884,0.2909,0.2924,0.2929,0.2983,0.31,0.2979,0.2981,0.3049,0.3269,0.3169,0.318,0.3105,0.3109,0.3112,0.3275,0,0.2507,0.2531,0.2551,0.2586,0.2602,0.2643,0.2692,0.2749,0.2793,0.2865,0.2907,0.2968,0.2942,0.2974,0.3029,0.3092,0.3155,0.3058,0.3197,0.3202,0.3113,0.32,0.2917,0.303,0.3294,0.3298,0.33,0,0.2501,0.2522,0.255,0.2605,0.2619,0.2653,0.2742,0.2787,0.2897,0.2943,0.3018,0.3051,0.3152,0.3109,0.3261,0.3206,0.3251,0.3284,0.329,0.3198,0.3138,0.3015,0.3055,0.3333,0.333,0.3328,0.3325,0,0.2481,0.2519,0.2543,0.2557,0.2628,0.2666,0.2718,0.2819,0.288,0.3007,0.3082,0.3176,0.326,0.3327,0.3393,0.3347,0.3556,0.3494,0.3447,0.344,0.3226,0.3194,0.3609,0.3608,0.3608,0.3608,0.3607,0,0.2469,0.2486,0.2538,0.2553,0.2612,0.2666,0.2746,0.2824,0.2945,0.3037,0.313,0.3218,0.3325,0.3435,0.3461,0.3531,0.3619,0.3488,0.3487,0.3231,0.3199,0.3473,0.3455,0.3614,0.3612,0.3611,0.361,0,0.2437,0.2469,0.2489,0.256,0.2603,0.264,0.2763,0.2805,0.2958,0.3085,0.3137,0.331,0.3446,0.3533,0.3667,0.3628,0.3686,0.3683,0.3372,0.333,0.3503,0.3485,0.3646,0.3644,0.3642,0.3641,0.364,0,0.2422,0.2433,0.2489,0.2513,0.2546,0.2621,0.2669,0.2802,0.2863,0.3116,0.3174,0.3368,0.3442,0.3616,0.3603,0.3646,0.3708,0.3394,0.3233,0.353,0.3513,0.3498,0.3483,0.2977,0.2971,0.2966,0.2961,0,0.2393,0.2402,0.2427,0.2476,0.2512,0.2558,0.2652,0.2703,0.2865,0.2978,0.3131,0.3214,0.3391,0.3303,0.3385,0.3354,0.3353,0.3284,0.3719,0.2994,0.2908,0.2888,0.2895,0.2914,0.2919,0.2922,0.2925,0.2927,0.2376,0.2365,0.2396,0.2428,0.2449,0.2472,0.2481,0.259,0.2674,0.2807,0.2955,0.2998,0.3059,0.3019,0.2948,0.2907,0.3128,0.2966,0.298,0.3,0.2876,0.2789,0.2751,0.2754,0.2758,0.276,0.2763,0,0.2336,0.2339,0.2357,0.2369,0.2316,0.2388,0.2436,0.2399,0.2431,0.2581,0.2658,0.2455,0.2442,0.2523,0.2389,0.2385,0.2327,0.2277,0.2179,0.2229,0.2274,0.2108,0.1782,0.1779,0.1776,0.1773,0,0,0.2326,0.2305,0.2287,0.2212,0.2219,0.2161,0.2144,0.2111,0.2157,0.2122,0.2138,0.2333,0.2442,0.2077,0.2034,0.1887,0.2028,0.1802,0.2597,0.2532,0.2571,0.2692,0.2498,0,0,0,0,0]},{"header":{"parameterUnit":"m.s-1","parameterCategory":2,"la1":30.2991,"la2":30.254,"lo1":-89.0895,"lo2":-89.0444,"dy":0.0017,"dx":0.0017,"nx":28,"ny":28,"refTime":"2023-08-28T09:00:00:Z","depth":"2","parameterNumber":3,"parameterNumberName":"V-component_of_CURRENTS"},"data":[0,0,0,0,0,0,0,0,0,0,0,0,0,0,0,0,0,0,0,0,0,0,0,0,0,0,0,0,0,0,0,0,0,0,0,0,0,0,0,0,0,0,0,0,0,0,0,0,0,0,0,0,0,0,0,0,0,0,0.018,0.018,0,0.0146,0.0145,0.0145,0.0116,0.0116,0.0116,0.0115,0.0078,0.0077,0.0076,0,0,0,0,0,0,0,0,0,0,0,0,0,0.0182,0.0182,0.018,0.018,0.0179,0.0146,0.0145,0.0145,0.0116,0.0116,0.0116,0.0115,0.0078,0.0077,0.0076,0,0,0,0,0,0,0,0,0,0,0,0,0,0.0167,0.0182,0.018,0.0162,0.016,0.0146,0.0145,0.0145,0.0116,0.0116,0.0116,0.0115,0.0078,0.0077,0.0076,0.0076,0,0,0.0073,0.0072,0,0,0,0,0,0,0,0,0.0168,0.0167,0.0165,0.0163,0.0161,0.0135,0.0132,0.0122,0.0116,0.0132,0.0115,0.0115,0.0098,0.0095,0.0088,0.0075,0.0073,0.0073,0.0072,0.0071,0.0071,0,0,0,0,0,0,0,0.0169,0.0168,0.0166,0.0164,0.0162,0.0142,0.0139,0.013,0.0117,0.0131,0.0129,0.0126,0.0096,0.0089,0.0087,0.0073,0.0073,0.0072,0.0071,0.007,0.0051,0.0051,0,0,0,0,0,0,0.0177,0.017,0.0167,0.0165,0.0164,0.0142,0.0139,0.0143,0.0117,0.0113,0.0126,0.0125,0.0092,0.0089,0.0086,0.0092,0.0071,0.007,0.007,0.0051,0.0051,0.0052,0,0,0,0,0,0,0.0178,0.0178,0.0168,0.0166,0.0164,0.0143,0.0147,0.0143,0.0139,0.0114,0.0109,0.0127,0.0091,0.0087,0.0084,0.009,0.007,0.0069,0.0051,0.0051,0.0051,0.0099,0,0,0,0,0,0,0.0178,0.0178,0.0184,0.0167,0.0164,0.0169,0.0147,0.0143,0.0138,0.0135,0.0113,0.0109,0.0091,0.0086,0.0083,0.0088,0.0068,0.0051,0.0051,0.0051,0.0097,0.0101,0.0104,0,0,0,0,0,0.0178,0.0191,0.0184,0.0184,0.0173,0.017,0.0167,0.0149,0.0138,0.0143,0.0126,0.0109,0.0085,0.0085,0.0082,0.0086,0.0051,0.0051,0.0051,0.0095,0.01,0.0104,0,0,0,0,0,0,0.0192,0.0188,0.0181,0.0191,0.0184,0.0165,0.0165,0.0155,0.0145,0.0141,0.0117,0.0112,0.0108,0.0092,0.0093,0.008,0.0063,0.0063,0.0098,0.0102,0.0105,0.0124,0.0067,0,0,0,0,0,0.0199,0.0208,0.0198,0.0205,0.0203,0.0185,0.0181,0.0171,0.0159,0.0154,0.0138,0.0119,0.0106,0.0101,0.0086,0.0086,0.0072,0.0084,0.0087,0.009,0.0102,0.0089,0.0093,0.0053,0.0053,0.0053,0,0,0.0205,0.0204,0.0208,0.0208,0.0199,0.0207,0.0182,0.018,0.0188,0.0152,0.0156,0.0132,0.0108,0.0104,0.0101,0.0093,0.0093,0.0091,0.0094,0.0104,0.009,0.0094,0.0097,0.0053,0.0053,0.0053,0,0,0.0225,0.0222,0.0237,0.0237,0.0231,0.0222,0.0226,0.0212,0.0207,0.0206,0.018,0.0165,0.0146,0.0132,0.0122,0.0136,0.011,0.0125,0.016,0.0147,0.015,0.0153,0.0137,0.0138,0.0128,0.0128,0.0128,0,0.0231,0.0253,0.0239,0.0255,0.0262,0.0234,0.0254,0.0245,0.0232,0.0235,0.0214,0.0185,0.0161,0.0162,0.0161,0.0145,0.0132,0.0148,0.0153,0.0155,0.0157,0.014,0.0141,0.013,0.013,0.013,0.013,0,0.0264,0.0281,0.029,0.0303,0.0307,0.0319,0.0309,0.0311,0.0296,0.0285,0.0279,0.0242,0.0228,0.0211,0.019,0.0193,0.0176,0.0158,0.0146,0.0165,0.0144,0.0144,0.0134,0.0133,0.0132,0.0131,0,0,0.0281,0.0309,0.0314,0.0337,0.0338,0.0351,0.036,0.037,0.0389,0.0354,0.0376,0.0331,0.0305,0.0292,0.0257,0.0242,0.0235,0.021,0.0208,0.02,0.0205,0.0168,0.0164,0.0218,0.0218,0.0219,0.0184,0,0.0312,0.0362,0.0364,0.0411,0.0437,0.0425,0.0445,0.0446,0.0437,0.0449,0.0402,0.0405,0.0338,0.0336,0.0305,0.0263,0.0238,0.0247,0.0183,0.0181,0.0151,0.0164,0.0183,0.0152,0.0183,0.0183,0.0183,0,0.0347,0.038,0.0436,0.0483,0.0494,0.0518,0.0553,0.0568,0.0566,0.056,0.0537,0.0501,0.0473,0.0415,0.0338,0.0346,0.0279,0.0235,0.0232,0.0184,0.0144,0.0138,0.015,0.0183,0.0183,0.0183,0.0183,0,0.0382,0.0433,0.0486,0.0501,0.0543,0.0572,0.0595,0.0605,0.0641,0.0639,0.0668,0.06,0.06,0.05,0.0391,0.0369,0.031,0.0267,0.0166,0.0162,0.016,0.0156,0.0209,0.0209,0.0209,0.0209,0.021,0,0.0422,0.0465,0.0513,0.0545,0.0622,0.0627,0.0702,0.0712,0.0745,0.0818,0.0735,0.0778,0.0624,0.0565,0.0435,0.0307,0.0338,0.0179,0.0154,0.0175,0.0173,0.0185,0.0182,0.0208,0.0208,0.0209,0.0209,0,0.0455,0.0481,0.0552,0.0614,0.0644,0.0701,0.0792,0.0849,0.0865,0.0961,0.0973,0.0927,0.085,0.0683,0.0538,0.0388,0.0256,0.02,0.0231,0.0209,0.0101,0.0102,0.0078,0.0076,0.0075,0.0074,0.0073,0,0.0477,0.0516,0.0611,0.0671,0.0709,0.0796,0.0868,0.091,0.0988,0.107,0.1135,0.1081,0.1067,0.0816,0.055,0.0307,0.0272,0.0147,0.0094,0.0112,0.009,0.0092,0.0094,0.011,0.011,0.0109,0.0109,0,0.0525,0.0558,0.0621,0.0745,0.0837,0.0951,0.1062,0.115,0.1227,0.1308,0.1412,0.1403,0.1156,0.0909,0.0547,0.0371,0.0178,0.0128,0.016,0.0134,0.0138,0.0117,0.0119,0.0105,0.0105,0.0106,0.0106,0.0106,0.0566,0.062,0.0711,0.083,0.0946,0.1113,0.1234,0.1355,0.1505,0.1639,0.1614,0.1586,0.1271,0.0802,0.05,0.0161,0.017,0.0036,0.004,0.0043,0.0047,0.0047,-0.0002,-0.0002,-0.0002,-0.0002,-0.0002,0,0.0623,0.0687,0.0795,0.0957,0.1102,0.1158,0.1371,0.1493,0.1691,0.1754,0.1816,0.1506,0.1215,0.0855,0.0361,0.0063,0.0039,-0.0044,0.0003,0.0009,0.0013,0.0017,-0.0041,-0.0041,-0.0042,-0.0043,0,0,0.0658,0.0764,0.0819,0.1062,0.119,0.141,0.155,0.1715,0.1802,0.1863,0.1813,0.1729,0.1296,0.0927,0.0531,0.0255,0.0196,0.0187,0.0248,0.0356,0.0364,0.0087,0.0102,0,0,0,0,0]}],[{"header":{"parameterUnit":"m.s-1","parameterCategory":2,"la1":30.2991,"la2":30.254,"lo1":-89.0895,"lo2":-89.0444,"dy":0.0017,"dx":0.0017,"nx":28,"ny":28,"refTime":"2023-08-28T09:00:00:Z","depth":"4","parameterNumber":2,"parameterNumberName":"U-component_of_CURRENTS"},"data":[0,0,0,0,0,0,0,0,0,0,0,0,0,0,0,0,0,0,0,0,0,0,0,0,0,0,0,0,0,0,0,0,0,0,0,0,0,0,0,0,0,0,0,0,0,0,0,0,0,0,0,0,0,0,0,0,0,0,0.1549,0.1549,0,0.1586,0.1586,0.1587,0.1628,0.1629,0.163,0.163,0.1675,0.1676,0.1676,0,0,0,0,0,0,0,0,0,0,0,0,0,0.15,0.1501,0.1549,0.1549,0.155,0.1586,0.1586,0.1587,0.1628,0.1629,0.163,0.1631,0.1675,0.1676,0.1676,0,0,0,0,0,0,0,0,0,0,0,0,0,0.1527,0.1501,0.1548,0.1576,0.1579,0.1586,0.1586,0.1587,0.1628,0.1629,0.163,0.1631,0.1675,0.1676,0.1676,0.166,0,0,0.1679,0.1679,0,0,0,0,0,0,0,0,0.1525,0.1528,0.1571,0.1574,0.1577,0.1605,0.1586,0.1612,0.1628,0.1608,0.163,0.1632,0.1652,0.1655,0.1658,0.1662,0.1664,0.1679,0.1679,0.168,0.168,0,0,0,0,0,0,0,0.1523,0.1527,0.1562,0.1572,0.1575,0.1582,0.1587,0.1591,0.1623,0.161,0.1613,0.1619,0.1654,0.1657,0.1659,0.1664,0.1679,0.168,0.168,0.168,0.1753,0.1754,0,0,0,0,0,0,0.1521,0.1525,0.1561,0.1563,0.1555,0.1582,0.1587,0.1594,0.1623,0.1628,0.1618,0.1621,0.1655,0.1658,0.1661,0.173,0.168,0.168,0.1681,0.1751,0.1753,0.1755,0,0,0,0,0,0,0.1519,0.1523,0.1559,0.1546,0.1551,0.1582,0.1588,0.1594,0.1631,0.1629,0.1635,0.1654,0.1656,0.166,0.1698,0.1729,0.1681,0.1682,0.175,0.1752,0.1754,0.1812,0,0,0,0,0,0,0.1518,0.1523,0.1543,0.1546,0.1552,0.1582,0.1588,0.1594,0.1631,0.1636,0.1661,0.1664,0.1657,0.1697,0.1699,0.1729,0.1682,0.1748,0.1751,0.1753,0.1808,0.1816,0.1822,0,0,0,0,0,0.1516,0.1531,0.1544,0.1549,0.1574,0.1582,0.1587,0.161,0.1632,0.1648,0.1674,0.1665,0.1716,0.1699,0.1701,0.1732,0.1746,0.175,0.1753,0.1805,0.1814,0.1822,0,0,0,0,0,0,0.1522,0.1537,0.1551,0.1572,0.1587,0.1591,0.1614,0.1629,0.1662,0.1681,0.1681,0.1686,0.1731,0.1724,0.1705,0.1761,0.173,0.1734,0.1769,0.1778,0.1785,0.1785,0.1683,0,0,0,0,0,0.1532,0.1552,0.1561,0.1583,0.1593,0.1612,0.1627,0.1643,0.1663,0.168,0.1699,0.1721,0.1739,0.1755,0.1766,0.1794,0.1802,0.1817,0.1824,0.183,0.1832,0.1877,0.1888,0.1765,0.1765,0.1765,0,0,0.1541,0.1554,0.1566,0.1587,0.1604,0.1621,0.1625,0.1656,0.1682,0.1678,0.1734,0.1749,0.1753,0.1789,0.1808,0.1791,0.1871,0.1834,0.1839,0.1838,0.1881,0.1893,0.1904,0.1767,0.1767,0.1767,0,0,0.1555,0.1582,0.1599,0.1614,0.1645,0.1653,0.1669,0.1694,0.1722,0.1764,0.1775,0.181,0.1838,0.1848,0.1854,0.1906,0.1908,0.1917,0.1953,0.1997,0.2007,0.2016,0.2051,0.2062,0.1919,0.1919,0.192,0,0.157,0.1587,0.1606,0.1625,0.1642,0.1671,0.169,0.1718,0.1757,0.1781,0.1793,0.1853,0.1862,0.1899,0.1923,0.1922,0.1948,0.1919,0.2006,0.2015,0.2024,0.2057,0.2069,0.1923,0.1922,0.1922,0.1922,0,0.1582,0.1611,0.1625,0.1658,0.1679,0.1703,0.1734,0.1775,0.1815,0.1837,0.1898,0.1917,0.1953,0.1963,0.1962,0.2026,0.2026,0.2011,0.1984,0.204,0.2071,0.2082,0.1927,0.1926,0.1925,0.1924,0,0,0.157,0.1622,0.1631,0.1651,0.1699,0.1711,0.1768,0.1809,0.1852,0.1903,0.1956,0.1996,0.2021,0.203,0.204,0.2076,0.2163,0.2079,0.208,0.2111,0.2269,0.2121,0.212,0.2174,0.2176,0.2178,0.2269,0,0.1576,0.1611,0.1638,0.1679,0.1696,0.1744,0.1786,0.1836,0.1888,0.1951,0.1991,0.2045,0.2043,0.2077,0.2116,0.2155,0.2196,0.214,0.221,0.2212,0.2073,0.2128,0.2185,0.2278,0.2281,0.2283,0.2284,0,0.1568,0.1594,0.1633,0.1684,0.1698,0.1736,0.1809,0.1852,0.1941,0.1988,0.2056,0.2094,0.217,0.2157,0.2256,0.2228,0.226,0.2277,0.2281,0.2128,0.2085,0.2208,0.2305,0.2303,0.2302,0.23,0.2299,0,0.1526,0.1585,0.1617,0.1637,0.1702,0.1744,0.179,0.1871,0.1914,0.2031,0.2084,0.2164,0.2236,0.2283,0.234,0.2316,0.2438,0.2404,0.2296,0.2286,0.2366,0.2355,0.247,0.247,0.247,0.247,0.247,0,0.1495,0.1521,0.1611,0.1625,0.1667,0.1732,0.179,0.1854,0.1954,0.2003,0.2112,0.2166,0.2278,0.2354,0.2376,0.2376,0.2476,0.2309,0.23,0.2389,0.238,0.2375,0.2362,0.2473,0.2472,0.2472,0.2471,0,0.1427,0.1489,0.1526,0.1616,0.1647,0.1681,0.1777,0.1806,0.1937,0.2015,0.2062,0.221,0.2307,0.2389,0.2482,0.2417,0.2429,0.2405,0.2512,0.2507,0.2238,0.2228,0.2277,0.2273,0.2269,0.2266,0.2263,0,0.1388,0.1407,0.1505,0.1522,0.1568,0.1633,0.1657,0.178,0.1821,0.2011,0.2035,0.2194,0.2271,0.2294,0.2386,0.2419,0.2389,0.2377,0.2279,0.2232,0.222,0.2215,0.221,0.2257,0.2256,0.2255,0.2254,0,0.1308,0.1364,0.1393,0.1434,0.1473,0.1489,0.1559,0.1584,0.1727,0.1875,0.1959,0.202,0.2133,0.2201,0.226,0.2269,0.2366,0.2337,0.2343,0.2251,0.2208,0.2199,0.2198,0.2241,0.2243,0.2244,0.2245,0,0.1249,0.1249,0.13,0.132,0.1351,0.1329,0.1383,0.1441,0.1507,0.1741,0.1766,0.1944,0.2106,0.2126,0.217,0.218,0.2133,0.2042,0.2063,0.2078,0.1969,0.1883,0.1814,0,0,0,0,0,0.1176,0.1155,0.1171,0.117,0.119,0.1217,0.1296,0.1363,0.1534,0.1541,0.1653,0.1746,0.1834,0.1931,0.1901,0.2067,0.2129,0.202,0.203,0.2169,0.2184,0.2073,0,0,0,0,0,0,0.112,0.1125,0.113,0.1039,0.1019,0.1018,0.107,0.1183,0.121,0.141,0.1476,0.163,0.175,0.184,0.1868,0.1895,0.186,0.2139,0.2134,0.2161,0.2174,0.2186,0.2077,0,0,0,0,0]},{"header":{"parameterUnit":"m.s-1","parameterCategory":2,"la1":30.2991,"la2":30.254,"lo1":-89.0895,"lo2":-89.0444,"dy":0.0017,"dx":0.0017,"nx":28,"ny":28,"refTime":"2023-08-28T09:00:00:Z","depth":"4","parameterNumber":3,"parameterNumberName":"V-component_of_CURRENTS"},"data":[0,0,0,0,0,0,0,0,0,0,0,0,0,0,0,0,0,0,0,0,0,0,0,0,0,0,0,0,0,0,0,0,0,0,0,0,0,0,0,0,0,0,0,0,0,0,0,0,0,0,0,0,0,0,0,0,0,0,0.0169,0.0169,0,0.015,0.015,0.0149,0.0137,0.0137,0.0137,0.0137,0.0116,0.0116,0.0115,0,0,0,0,0,0,0,0,0,0,0,0,0,0.0169,0.0169,0.0169,0.0169,0.0169,0.015,0.015,0.0149,0.0137,0.0137,0.0137,0.0137,0.0116,0.0116,0.0115,0,0,0,0,0,0,0,0,0,0,0,0,0,0.0161,0.0169,0.017,0.0161,0.016,0.015,0.015,0.0149,0.0137,0.0137,0.0137,0.0136,0.0117,0.0116,0.0115,0.0113,0,0,0.0113,0.0113,0,0,0,0,0,0,0,0,0.0161,0.0161,0.0162,0.0161,0.016,0.0146,0.0142,0.0137,0.0137,0.0145,0.0137,0.0136,0.0126,0.0125,0.0121,0.0112,0.0111,0.0113,0.0113,0.0112,0.0112,0,0,0,0,0,0,0,0.0162,0.0162,0.0162,0.0162,0.0161,0.0148,0.0147,0.0141,0.0136,0.0145,0.0144,0.0142,0.0126,0.0122,0.012,0.0111,0.0113,0.0112,0.0112,0.0112,0.01,0.01,0,0,0,0,0,0,0.0166,0.0162,0.0162,0.0161,0.0161,0.0148,0.0147,0.015,0.0136,0.0134,0.0142,0.0141,0.0123,0.0121,0.012,0.0129,0.0112,0.0112,0.0111,0.01,0.01,0.01,0,0,0,0,0,0,0.0167,0.0167,0.0163,0.0161,0.016,0.0149,0.0152,0.015,0.0151,0.0134,0.0132,0.0145,0.0123,0.0121,0.012,0.0128,0.0111,0.0111,0.0099,0.01,0.01,0.014,0,0,0,0,0,0,0.0167,0.0167,0.0172,0.0161,0.016,0.0164,0.0152,0.015,0.0149,0.0148,0.0136,0.0134,0.0123,0.0121,0.0119,0.0127,0.011,0.0099,0.01,0.01,0.0138,0.0141,0.0144,0,0,0,0,0,0.0167,0.0175,0.0173,0.0173,0.0167,0.0165,0.0163,0.0154,0.015,0.0154,0.0145,0.0135,0.0121,0.0121,0.0118,0.0126,0.0099,0.0099,0.01,0.0137,0.0141,0.0144,0,0,0,0,0,0,0.0176,0.0175,0.0172,0.0179,0.0175,0.0163,0.0165,0.0159,0.0155,0.0154,0.0139,0.0137,0.0136,0.0125,0.0125,0.0122,0.0107,0.0107,0.0136,0.014,0.0142,0.0158,0.0109,0,0,0,0,0,0.0181,0.0189,0.0182,0.0188,0.0188,0.0178,0.0176,0.017,0.0164,0.0162,0.0153,0.0142,0.0135,0.0133,0.0123,0.0125,0.0103,0.0126,0.0129,0.0132,0.0142,0.0115,0.0116,0.0101,0.0101,0.0101,0,0,0.0186,0.0186,0.019,0.0191,0.0186,0.0193,0.0176,0.0177,0.0186,0.016,0.0169,0.0152,0.0136,0.0137,0.0136,0.013,0.0122,0.0132,0.0135,0.0143,0.0115,0.0117,0.0118,0.0101,0.0101,0.0101,0,0,0.02,0.02,0.0211,0.0213,0.0211,0.0206,0.0209,0.0201,0.0201,0.0204,0.0187,0.0179,0.0168,0.016,0.0154,0.0167,0.0135,0.0158,0.0189,0.0163,0.0164,0.0165,0.0128,0.0125,0.0162,0.0162,0.0162,0,0.0205,0.0222,0.0214,0.0226,0.0234,0.0215,0.0232,0.0228,0.0222,0.0226,0.0213,0.0196,0.0181,0.0184,0.0187,0.0175,0.0148,0.0179,0.0167,0.0167,0.0168,0.013,0.0126,0.0164,0.0164,0.0164,0.0164,0,0.0229,0.0245,0.0251,0.0265,0.027,0.028,0.0276,0.0281,0.0275,0.0268,0.0267,0.0243,0.0235,0.0224,0.0211,0.0208,0.0184,0.0172,0.0161,0.0172,0.0131,0.0127,0.0167,0.0166,0.0166,0.0165,0,0,0.0239,0.0265,0.0269,0.0291,0.0295,0.0306,0.0319,0.0329,0.0345,0.0324,0.034,0.0316,0.0297,0.0289,0.0265,0.0243,0.0216,0.0212,0.021,0.0181,0.0146,0.0124,0.0116,0.0198,0.0198,0.0198,0.0113,0,0.0262,0.0302,0.0307,0.0348,0.0369,0.0366,0.0385,0.039,0.0385,0.0392,0.0361,0.0361,0.0323,0.0321,0.0292,0.0238,0.0208,0.024,0.0136,0.0133,0.0116,0.0112,0.0197,0.011,0.0109,0.0108,0.0107,0,0.0286,0.0314,0.036,0.0405,0.0415,0.0439,0.0472,0.0486,0.0483,0.0479,0.0462,0.0429,0.0399,0.0365,0.0273,0.0293,0.0226,0.0177,0.0172,0.0138,0.0104,0.0098,0.0099,0.01,0.01,0.0101,0.0102,0,0.0306,0.0354,0.0397,0.0412,0.0453,0.0483,0.0507,0.0516,0.0545,0.0536,0.0549,0.0489,0.0476,0.0383,0.0276,0.0273,0.0166,0.0148,0.0061,0.0058,0.0086,0.0086,0.0082,0.0082,0.0082,0.0083,0.0083,0,0.0331,0.0369,0.0419,0.0445,0.0513,0.0525,0.0589,0.06,0.0624,0.0665,0.0601,0.0609,0.0481,0.0402,0.0291,0.0162,0.0172,0.0067,0.0038,0.0103,0.0106,0.0082,0.0083,0.0079,0.008,0.0081,0.0081,0,0.0346,0.0374,0.0434,0.0497,0.0526,0.0577,0.0662,0.0705,0.0715,0.0767,0.0769,0.0702,0.0592,0.0448,0.0294,0.0194,0.0065,0.0015,0.009,0.0066,-0.0033,-0.0028,-0.0091,-0.0092,-0.0093,-0.0094,-0.0095,0,0.0356,0.0387,0.0478,0.0529,0.0567,0.0648,0.0708,0.0751,0.0805,0.0825,0.0856,0.0762,0.0696,0.0463,0.0297,0.0068,0.0037,-0.004,-0.0033,-0.0027,-0.0049,-0.0043,-0.0037,-0.0097,-0.0098,-0.0098,-0.0098,0,0.038,0.0413,0.0469,0.0574,0.0656,0.0747,0.084,0.0886,0.0936,0.0943,0.0929,0.0801,0.0672,0.047,0.0287,0.0126,0.0003,-0.0053,-0.0051,-0.0046,-0.0035,-0.0055,-0.0048,-0.0102,-0.0102,-0.0101,-0.0101,0,0.0404,0.0448,0.0528,0.0622,0.0723,0.0827,0.0872,0.094,0.099,0.1009,0.0997,0.0849,0.076,0.05,0.0335,0.0166,0.012,0.0063,0.0058,0.006,0.0124,0.016,0.0132,0,0,0,0,0,0.0427,0.0485,0.0571,0.0683,0.078,0.0849,0.0954,0.099,0.1037,0.1039,0.1024,0.0901,0.0648,0.0535,0.0363,0.0298,0.0081,0.0088,0.0011,-0.0125,-0.0121,-0.0074,0,0,0,0,0,0,0.0448,0.053,0.0575,0.0715,0.0797,0.0921,0.0992,0.1026,0.103,0.1037,0.0908,0.0846,0.06,0.0747,0.0356,0.0303,0.0227,-0.0028,-0.0032,-0.0128,-0.0124,-0.012,-0.0071,0,0,0,0,0]}]]